EW2458 Weather Reports


time (UTC)temp
F
wind
direction
speed
knots
gust
knots
rain 1hr
in
rain 24hr
in
rain mn
in
humidity
%
barometer
mb
20260906051541 75 25 0.0 6.1 0.09 0.09 0.03 91 1012.9
20260906050038 76 333 5.2 9.6 0.06 0.06 0.00 89 1012.7
20260906044536 78 314 5.2 8.7 0.00 0.00 0.00 86 1011.9
20260906043037 76 335 3.5 6.1 0.00 0.00 0.00 90 1011.4
20260906041546 75 96 0.0 0.9 0.00 0.00 0.00 91 1010.9
20260906040036 75 120 0.0 2.6 0.00 0.00 0.00 92 1011.2
20260906034541 75 102 0.9 2.6 0.00 0.00 0.00 91 1011.4
20260906033036 75 139 0.0 0.9 0.00 0.00 0.00 91 1011.0
20260906031539 75 131 0.0 3.5 0.00 0.00 0.00 92 1010.9
20260906030039 76 120 0.0 1.7 0.00 0.00 0.00 91 1010.9
20260906024532 76 117 0.0 0.9 0.00 0.00 0.00 90 1010.8
20260906023033 77 122 1.7 3.5 0.00 0.00 0.00 89 1010.8
20260906021531 77 98 0.0 2.6 0.00 0.00 0.00 86 1010.6
20260906020032 79 96 0.0 1.7 0.00 0.00 0.00 82 1010.1
20260906014542 80 208 0.0 2.6 0.00 0.00 0.00 79 1009.9
20260906013030 81 128 0.9 4.3 0.00 0.00 0.00 78 1009.9
20260906011531 81 68 0.0 2.6 0.00 0.00 0.00 77 1010.2
20260906010054 80 349 0.0 2.6 0.00 0.00 0.00 80 1010.3
20260906004528 80 149 0.9 4.3 0.00 0.00 0.00 79 1010.0
20260906003027 81 106 0.9 2.6 0.00 0.00 0.00 77 1010.0
20260906001541 83 148 0.0 1.7 0.00 0.00 0.00 73 1009.8
20260906000027 84 43 0.0 0.0 0.00 0.00 0.00 70 1009.8
20260905234526 86 146 0.0 0.9 0.00 0.00 0.00 68 1009.8
20260905233025 86 152 0.9 2.6 0.00 0.00 0.00 66 1009.7
20260905231537 86 101 0.9 2.6 0.00 0.00 0.00 66 1009.6
20260905230025 86 82 0.9 4.3 0.00 0.00 0.00 65 1009.5
20260905224624 87 109 0.9 2.6 0.00 0.00 0.00 63 1009.5
20260905223034 86 114 0.0 6.1 0.00 0.00 0.00 65 1009.7
20260905221523 86 124 0.9 7.8 0.00 0.00 0.00 65 1010.0
20260905220027 87 107 6.1 10.4 0.00 0.00 0.00 63 1010.1
20260905214520 89 119 7.8 14.8 0.00 0.00 0.00 60 1010.1
20260905213021 94 119 9.6 17.4 0.00 0.00 0.00 55 1009.7
20260905211535 94 77 1.7 9.6 0.00 0.00 0.00 54 1009.6
20260905210020 95 124 4.3 11.3 0.00 0.00 0.00 52 1009.6
20260905204524 97 321 5.2 10.4 0.00 0.00 0.00 47 1009.3
20260905203029 97 248 1.7 5.2 0.00 0.00 0.00 48 1009.3
20260905201521 96 319 4.3 10.4 0.00 0.00 0.00 48 1009.6
20260905200011 96 304 5.2 8.7 0.00 0.00 0.00 49 1009.8
20260905194508 96 290 4.3 7.8 0.00 0.00 0.00 49 1010.1
20260905193008 95 30 4.3 8.7 0.00 0.00 0.00 51 1010.3
20260905191504 96 308 6.1 8.7 0.00 0.00 0.00 51 1010.7
20260905190002 96 276 3.5 8.7 0.00 0.00 0.00 50 1010.8
20260905184611 96 89 0.0 2.6 0.00 0.00 0.00 51 1010.9
20260905183112 95 359 3.5 7.8 0.00 0.00 0.00 52 1011.1
20260905181658 96 214 0.9 4.3 0.00 0.00 0.00 52 1011.3
20260905180057 95 53 1.7 10.4 0.00 0.00 0.00 53 1011.5
20260905174552 95 75 0.0 5.2 0.00 0.00 0.00 53 1011.7
20260905173050 94 352 5.2 7.8 0.00 0.00 0.00 56 1011.8
20260905171550 95 153 0.0 5.2 0.00 0.00 0.00 56 1012.0
20260905170050 94 58 0.0 2.6 0.00 0.00 0.00 60 1012.2
20260905164540 93 297 0.9 1.7 0.00 0.00 0.00 63 1012.4
20260905161533 89 290 0.9 4.3 0.00 0.00 0.00 70 1012.9
20260905160033 88 311 1.7 5.2 0.00 0.00 0.00 70 1012.9
20260905154532 88 39 0.9 3.5 0.00 0.00 0.00 68 1012.9
20260905153030 86 308 1.7 3.5 0.00 0.00 0.00 70 1013.0
20260905151535 87 280 0.0 2.6 0.00 0.00 0.00 72 1013.1
20260905150026 85 23 0.9 1.7 0.00 0.00 0.00 74 1013.1
20260905144530 85 138 0.0 0.0 0.00 0.00 0.00 77 1013.2
20260905143018 82 230 0.0 0.0 0.00 0.00 0.00 81 1013.3
20260905141515 81 124 0.0 0.0 0.00 0.00 0.00 82 1013.3
20260905140011 79 124 0.0 0.9 0.00 0.00 0.00 87 1013.4
20260905134507 77 31 0.0 0.9 0.00 0.00 0.00 89 1013.4
20260905133004 76 141 0.0 0.0 0.00 0.00 0.00 91 1013.5
20260905131620 74 141 0.0 0.9 0.00 0.00 0.00 93 1013.8
20260905130058 74 141 0.0 0.0 0.00 0.00 0.00 94 1013.8
20260905124556 72 141 0.0 0.0 0.00 0.00 0.00 96 1013.9
20260905123103 71 141 0.0 0.0 0.00 0.00 0.00 97 1013.7
20260905121554 70 141 0.0 0.0 0.00 0.00 0.00 97 1013.6
20260905120051 70 141 0.0 0.9 0.00 0.00 0.00 97 1013.4
20260905114550 69 141 0.0 0.9 0.00 0.00 0.00 97 1013.3
20260905113051 69 142 0.0 0.9 0.00 0.00 0.00 97 1013.1
20260905111553 69 142 0.0 0.0 0.00 0.00 0.00 97 1013.0
20260905110048 69 146 0.0 0.9 0.00 0.00 0.00 97 1012.8
20260905104559 69 146 0.0 0.9 0.00 0.00 0.00 97 1012.7
20260905103043 70 146 0.0 0.0 0.00 0.00 0.00 97 1012.6
20260905101542 70 146 0.0 0.0 0.00 0.00 0.00 97 1012.6
20260905100044 70 146 0.0 0.0 0.00 0.00 0.00 97 1012.4
20260905094542 70 146 0.0 0.9 0.00 0.00 0.00 97 1012.3
20260905093040 70 147 0.0 0.0 0.00 0.00 0.00 96 1012.0
20260905091638 70 147 0.0 0.9 0.00 0.00 0.00 97 1012.1
20260905090054 70 131 0.0 0.0 0.00 0.00 0.00 96 1012.1
20260905084536 71 131 0.0 0.0 0.00 0.00 0.00 96 1012.1
20260905083035 71 131 0.0 0.0 0.00 0.00 0.00 96 1012.1
20260905081533 71 131 0.0 0.0 0.00 0.00 0.00 96 1012.2
20260905080032 71 125 0.0 0.0 0.00 0.00 0.00 96 1012.3
20260905074531 71 125 0.0 0.9 0.00 0.00 0.00 96 1012.4
20260905073032 71 124 0.0 0.0 0.00 0.00 0.00 96 1012.3
20260905071528 72 125 0.0 1.7 0.00 0.00 0.00 96 1012.3
20260905070027 71 122 0.0 0.0 0.00 0.00 0.00 95 1012.4
20260905064526 72 122 0.0 1.7 0.00 0.00 0.00 95 1012.4
20260905063025 72 124 0.0 0.0 0.00 0.00 0.00 95 1012.5
20260905061531 73 124 0.0 0.9 0.00 0.00 0.00 95 1012.5
20260905060022 73 127 0.0 0.9 0.00 0.00 0.00 95 1012.4
20260905054529 73 127 0.0 0.9 0.00 0.00 0.00 95 1012.5